Airfield :
LOGIN :

Register | Disclaimer

   EN    FR    IT 

 










Legend :    VFR   Marginal VFR   IFR   Intensive IFR   Very Intensive IFR
Visi :
Ceiling :
>= 8 km
>= 3000ft
5 to 8 km
1000 to 3000 ft
1500m to 5 km
500 to 1000 ft
800 to 1500m
200 to 500 ft
< 800m
< 200 ft
Symbols :   Thunderstorms  Fog  Heavy snow  Heavy precipitations  Wind > 20 kt
SIGMETs :     Misc.  Thunderstorms  Icing  Turbulence  Mountain Waves  Volcanic Ashes







- Airport Elevation : 939 ft


LKKB - Kbely Air Base

CURRENT METAR :
  • 220200Z 27010KT 9999 OVC023 08/04 Q1023

EXPIRED METARs :
  • 220100Z 27009KT 9999 -RA FEW022 OVC028 07/04 Q1024
  • 220000Z 26009KT 9999 -RA OVC024 08/03 Q1024

TAF TAF LKKB
Valid from the 22 at 00:00 until the 23 at 00:00 UTC


212300Z 2200/2300 24012KT 9999 OVC030
TEMPO 2200/2210 33016KT 7000 RA OVC020
PROB30
TEMPO 2200/2206 5000 RA OVC015
BECMG 2209/2211 03016G26KT
TEMPO 2212/2218 SHRA
BECMG 2218/2220 10008KT SCT035
No reported NOTAMs for that airfield.



MET'MAP, your aeronautical weather chart ! - Copyright ORBIFLY December 2007 - Disclaimer

ORBIFLY MET'MAP TEAM :

Programming & Development : Alexandra Zaïnal
Concept & Development : Baudouin d'Aumeries
Co-Development & Prog : Marc-Olivier Méhu
Technical & hardware support : Manuel Goepfert

Contact : metmap@orbifly.com




SOURCES & CREDITS :

   NOAA